Location: Newark
(12.4436°N, 0.6167°W)
Time: 23:28:57
(UTC+00:00)

Transit 2A - Pass Details

Date: 13 December 2019
Orbit: 601 x 958 km, 66.7° (Epoch: 21 January)

Event Time Altitude Azimuth Distance (km) Brightness Sun altitude
Rises 04:55:30 0° 195° (SSW) 3,353 9.4 -18.7°
Reaches altitude 10° 04:58:04 10° 192° (SSW) 2,363 8.6 -18.1°
Maximum altitude 05:03:25 66° 110° (ESE) 801 6.3 -16.9°
Drops below altitude 10° 05:08:13 10° 28° (NNE) 2,132 8.4 -15.8°
Sets 05:10:26 0° 26° (NNE) 3,000 9.1 -15.3°
